Weather Service Report


564 
ASUS44 KLUB 062201
RWRTX 
WEST TEXAS WEATHER ROUNDUP
NATIONAL WEATHER SERVICE LUBBOCK TX
400 PM CST FRI MAR 06 2015

NOTE: "FAIR" INDICATES FEW OR NO CLOUDS BELOW 12,000 FEET WITH NO
SIGNIFICANT WEATHER AND/OR OBSTRUCTIONS TO VISIBILITY.

TXZ004-006>008-010-012-014-016-OKZ002-062300-
TEXAS PANHANDLE/OKLAHOMA PANHANDLE
  
CITY           SKY/WX    TMP DP  RH WIND       PRES   REMARKS
AMARILLO       SUNNY     62  26  25 S14       30.28F                  
BORGER         SUNNY     64  22  20 VRB6      30.27F                  
CANADIAN       SUNNY     64  31  29 W8        30.27F                  
DALHART        SUNNY     62  19  19 S7        30.26F                  
DUMAS          SUNNY     64  22  19 SW6       30.26F                  
GUYMON         SUNNY     61  22  22 SW3       30.25F                  
$$

TXZ026-029-035-045-048-062300-
SOUTHERN PANHANDLE/SOUTH PLAINS/ROLLING PLAINS
  
CITY           SKY/WX    TMP DP  RH WIND       PRES   REMARKS
CHILDRESS      SUNNY     59  26  28 SW13      30.33F                  
SEMINOLE       SUNNY     57  27  31 S10       30.34S                  
LUBBOCK        SUNNY     57  28  33 S12G18    30.32F                  
$$

TXZ052-054-060>062-072-078-127-140-154-169-062300-
PERMIAN BASIN/CONCHO VALLEY/BIG COUNTRY/EDWARDS PLATEAU  
  
CITY           SKY/WX    TMP DP  RH WIND       PRES   REMARKS
ABILENE        SUNNY     54  26  34 S8        30.40F                  
BRADY          SUNNY     54  19  26 SE7       30.40F                  
BROWNWOOD      SUNNY     54  21  28 E5        30.43F                  
JUNCTION       SUNNY     58  19  22 CALM      30.39F                  
MIDLAND        SUNNY     56  29  35 S8        30.34F                  
ODESSA         SUNNY     55  25  31 S7        30.34F                  
SAN ANGELO     SUNNY     59  27  29 S8        30.37F                  
WINK           SUNNY     56  27  32 S7        30.31F                  
$$

TXZ055-058-074-075-080-082-062300-
FAR WEST/SOUTHWEST MOUNTAINS/TRANS PECOS
  
CITY           SKY/WX    TMP DP  RH WIND       PRES   REMARKS
DRYDEN           N/A     55  26  32 E14G20    30.35F                  
EL PASO        SUNNY     63  14  15 VRB7      30.23F                  
FORT STOCKTON  SUNNY     57  34  41 E9        30.32F                  
MARFA          SUNNY     63  32  31 S9        30.29F                  
PECOS          SUNNY     56  35  45 E7        30.32F                  
$$

TXZ014-016-019-021>030-083-062300
TEXAS TECH WEST TEXAS MESONET/TEXAS PANHANDLE/NORTHERN SOUTH PLAINS
  
CITY           SKY/WX    TMP DP  RH WIND       PRES   REMARKS
ABERNATHY 5ENE   N/A     55  31  39 S13       30.33F                  
AMARILLO 9NNE    N/A     63  27  24 SW6       30.27S                  
AMARILLO 7SSE    N/A     62  30  29 S12       30.29S                  
AMHERST 1NE      N/A     58  26  30 SW10      30.30F                  
BOOTLEG 11WNW    N/A     59  26  28 S9        30.30S                  
CANADIAN 6E      N/A     64  32  30 SW8       30.27F                  
CAPROCK CYN SP   N/A     58  33  39 S12       30.32F                  
CLARENDON 2WSW   N/A     57  31  36 S13       30.30F                  
CLAUDE 12SW      N/A     58  31  36 SW9       30.29F                  
DIMMITT 2NE      N/A     57  30  35 S14       30.29F                  
FLOYDADA 2NNE    N/A     55  29  36 S10       30.32F                  
FRIONA 2NE       N/A     59  27  29 S12       30.29F                  
GOODLETT 3W      N/A     60  27  28 S14       30.33F                  
HART 3N          N/A     56  32  40 S13       30.30F                  
HEREFORD 2NW     N/A     60  26  26 S13       30.28F                  
MCLEAN 1E        N/A     58  29  33 S10       30.29S                  
MEMPHIS 1NE      N/A     58  32  37 S10       30.32F                  
MULESHOE 2SSW    N/A     61  23  23 S10       30.29F                  
OLTON 6S         N/A     57  29  34 SW13      30.30F                  
PALO DURO SP     N/A     61  31  31 S12       30.30F                  
PAMPA 2E         N/A     59  29  32 S6        30.28F                  
PLAINVIEW 1S     N/A     56  34  42 SW8       30.31S                  
SILVERTON 7ESE   N/A     58  32  37 SW12      30.31F                  
TULIA 2ENE       N/A     55  36  48 SW13      30.30F                  
TURKEY 2WSW      N/A     59  33  37 SW12      30.31F                  
UMBARGER 3NNE    N/A     59  28  31 SW9       30.29S                  
$$

TXZ033>036-039>041-045>048-062300
TEXAS TECH WEST TEXAS MESONET/SOUTH PLAINS  
  
CITY           SKY/WX    TMP DP  RH WIND       PRES   REMARKS
AIKEN 3WSW       N/A     55  32  40 S9        30.33S                  
ANDREWS 2NE      N/A     57  26  30 S6        30.34S                  
ANTON 6SSW       N/A     57  29  34 S10       30.32S                  
BROWNFIELD 2S    N/A     55  26  32 S7        30.34S                  
DENVR CTY 7WNW   N/A     57  23  27 S8        30.32S                  
GAIL 2ESE        N/A     56  28  33 S8        30.35F                  
LAMESA 2SE       N/A     55  28  36 S6        30.35F                  
LEVELLAND 4S     N/A     58  23  26 S8        30.32F                  
LUBBOCK 3WNW     N/A     58  27  31 S8        30.33F                  
MORTON 1ENE      N/A     59  24  26 S13       30.30F                  
ODONNELL 1N      N/A     55  27  35 S8        30.35F                  
PLAINS 3N        N/A     59  20  22 S9        30.32S                  
RALLS 1SE        N/A     56  27  33 S9        30.34F                  
REESE CENTER     N/A     56  25  30 S10       30.33S                  
SEAGRAVES 1SW    N/A     57  26  30 SE7       30.33F                  
SEMINOLE 2NNE    N/A     57  26  30 S5        30.33F                  
SLATON 2NE       N/A     56  26  31 S10       30.34F                  
SNYDER 3E        N/A     56  28  34 S5        30.36F                  
SUNDOWN 8SW      N/A     59  22  23 S7        30.32F                  
TAHOKA 3NNE      N/A     56  29  35 S8        30.34F                  
WOLFFORTH 6SSW   N/A     56  30  35 S9        30.33F                  
$$

TXZ031-032-036>038-042>044-062300-
TEXAS TECH WEST TEXAS MESONET/ROLLING PLAINS 
  
CITY           SKY/WX    TMP DP  RH WIND       PRES   REMARKS
ASPERMONT 3NE    N/A     56  30  36 SW8       30.38F                  
FLUVANNA 3WNW    N/A     55  27  34 S7        30.36S                  
GUTHRIE 10WSW    N/A     59  27  29 S10       30.35F                  
HASKELL 1NW      N/A     53  32  45 S10       30.39F                  
JAYTON 1SSE      N/A     56  27  31 S8        30.37F                  
KNOX CITY 3NW    N/A     57  27  32 S10       30.38F                  
LK A HENRY 1NW   N/A     57  29  34 S9        30.35F                  
NORTHFIELD 1S    N/A     61  30  31 S8        30.33S                  
ODELL 4ENE       N/A     56  30  38 S10       30.37F                  
PADUCAH 10SW     N/A     59  25  26 S12       30.34F                  
POST 1NE         N/A     58  28  32 S9        30.35F                  
RRING SPRGS 3N   N/A     59  29  31 S10       30.33F                  
SEYMOUR 3NW      N/A     54  32  44 S12       30.40F                  
WEINERT 2NNE     N/A     55  33  43 S10       30.39F                  
WHITE RVR 6NE    N/A     57  26  30 S10       30.34F                  
$$

TXZ052-054-060>062-072-078-127-140-154-169-062300-
TEXAS TECH WEST TEXAS MESONET/PERMIAN BASIN/
CONCHO VALLEY/BIG COUNTRY/EDWARDS PLATEAU
  
CITY           SKY/WX    TMP DP  RH WIND       PRES   REMARKS
COYANOSA 2N      N/A     59  31  34 NE5       30.33F                  
JUNCTION 1SSW    N/A     58  24  26 E2        30.41S                  
MERTZON 3NNE     N/A     57  29  34 SE7       30.38F                  
SAN ANGELO 7NW   N/A     57  25  28 S6        30.38F                  
STRLNG CT 4WSW   N/A     57  29  34 SE5       30.38F                  
ST LAWRNCE 5SW   N/A     56  27  32 S6        30.35F                  
SWEETWATR 11SW   N/A     55  29  37 S8        30.39S                  
WALL 1E          N/A     58  26  29 S5        30.39F                  
$$

TXZ055-058-074-075-080-082-062300-
TEXAS TECH WEST TEXAS MESONET/FAR WEST/SOUTHWEST MOUNTAINS/TRANS PECOS
  
CITY           SKY/WX    TMP DP  RH WIND       PRES   REMARKS
PRSMN GAP BBNP   N/A     56  32  41 N12       30.31F                  
$$

Return to Home page


Western Regional Climate Center, wrcc@dri.edu